GW3201 Weather Reports


time (UTC)temp
C
wind
direction
speed
KPH
gust
KPH
rain 1hr
cm
rain 24hr
cm
rain mn
cm
humidity
%
barometer
mb
20260506030508 13 211 4.8 16.1 0.00 0.36 0.20 76 1016.2
20260506030011 13 251 3.2 12.9 0.00 0.36 0.20 76 1016.1
20260506025506 14 287 6.4 19.3 0.00 0.36 0.20 76 1016.0
20260506025005 14 250 4.8 19.3 0.00 0.36 0.20 76 1016.0
20260506024525 14 250 8.0 16.1 0.00 0.36 0.20 75 1015.9
20260506024007 14 250 6.4 12.9 0.00 0.36 0.20 75 1015.8
20260506023608 15 236 6.4 14.5 0.00 0.36 0.20 75 1015.8
20260506023020 15 252 6.4 14.5 0.00 0.36 0.20 75 1015.7
20260506022548 15 247 3.2 16.1 0.00 0.36 0.20 75 1015.7
20260506022011 15 237 6.4 16.1 0.00 0.36 0.20 74 1015.7
20260506021518 15 292 3.2 12.9 0.00 0.36 0.20 74 1015.6
20260506021006 15 266 6.4 12.9 0.00 0.36 0.20 74 1015.5
20260506020504 15 268 3.2 16.1 0.00 0.36 0.20 74 1015.7
20260506020009 15 259 3.2 16.1 0.00 0.36 0.20 74 1015.5
20260506015508 15 245 4.8 16.1 0.00 0.36 0.20 74 1015.5
20260506015004 15 273 6.4 17.7 0.00 0.36 0.20 74 1015.4
20260506014522 15 221 8.0 19.3 0.00 0.36 0.20 74 1015.4
20260506014004 15 265 6.4 19.3 0.00 0.36 0.20 73 1015.3
20260506013507 15 290 8.0 19.3 0.00 0.36 0.20 73 1015.3
20260506013021 16 276 4.8 14.5 0.00 0.36 0.20 72 1015.3
20260506012508 16 242 4.8 19.3 0.00 0.36 0.20 72 1015.3
20260506012012 16 210 9.7 19.3 0.00 0.36 0.20 72 1015.4
20260506011525 16 215 6.4 19.3 0.00 0.36 0.20 71 1015.3
20260506011010 16 271 4.8 19.3 0.00 0.36 0.20 71 1015.3
20260506010508 16 246 11.3 19.3 0.00 0.36 0.20 71 1015.4
20260506010024 16 247 6.4 17.7 0.00 0.36 0.20 71 1015.3
20260506005508 16 233 9.7 16.1 0.00 0.36 0.20 71 1015.3
20260506005008 16 223 9.7 16.1 0.00 0.36 0.20 71 1015.3
20260506004509 16 239 6.4 16.1 0.00 0.36 0.20 71 1015.2
20260506004007 16 257 6.4 17.7 0.00 0.36 0.20 71 1015.3
20260506003508 16 285 4.8 17.7 0.00 0.36 0.20 71 1015.2
20260506003012 16 239 4.8 17.7 0.00 0.36 0.20 71 1015.2
20260506002513 16 199 6.4 17.7 0.00 0.36 0.20 71 1015.1
20260506002012 16 246 4.8 16.1 0.00 0.36 0.20 72 1015.1
20260506001519 16 150 6.4 16.1 0.00 0.36 0.20 72 1015.1
20260506001008 16 201 4.8 16.1 0.00 0.36 0.20 73 1015.1
20260506000508 16 236 8.0 16.1 0.00 0.36 0.20 73 1015.2
20260506000025 16 222 3.2 16.1 0.00 0.36 0.20 74 1015.2
20260505235510 16 241 4.8 12.9 0.00 0.36 0.20 74 1015.3
20260505235012 15 257 6.4 19.3 0.00 0.36 0.20 73 1015.3
20260505234533 16 277 8.0 19.3 0.00 0.36 0.20 73 1015.3
20260505234010 16 247 4.8 16.1 0.00 0.36 0.20 74 1015.3
20260505233514 15 219 4.8 17.7 0.00 0.36 0.20 74 1015.3
20260505233014 15 257 8.0 20.9 0.00 0.36 0.20 74 1015.3
20260505232503 15 236 11.3 20.9 0.00 0.36 0.20 73 1015.3
20260505232008 15 249 8.0 19.3 0.00 0.36 0.20 74 1015.3
20260505231529 15 248 8.0 17.7 0.00 0.36 0.20 74 1015.3
20260505231007 15 148 9.7 17.7 0.00 0.36 0.20 74 1015.3
20260505230508 15 258 8.0 16.1 0.00 0.36 0.20 74 1015.3
20260505230024 16 285 8.0 16.1 0.00 0.36 0.20 74 1015.3
20260505225507 16 269 6.4 17.7 0.00 0.36 0.20 73 1015.3
20260505225006 16 247 9.7 19.3 0.00 0.36 0.20 73 1015.2
20260505224531 16 236 8.0 19.3 0.00 0.36 0.20 73 1015.3
20260505224033 16 249 4.8 16.1 0.00 0.36 0.20 74 1015.3
20260505223510 16 262 8.0 16.1 0.00 0.36 0.20 73 1015.3
20260505223027 15 289 4.8 16.1 0.00 0.36 0.20 74 1015.3
20260505222506 15 245 4.8 12.9 0.00 0.36 0.20 73 1015.4
20260505222009 15 252 3.2 11.3 0.00 0.36 0.20 74 1015.4
20260505221528 15 255 6.4 11.3 0.00 0.36 0.20 74 1015.5
20260505221006 15 245 4.8 11.3 0.00 0.36 0.20 75 1015.6
20260505220517 15 246 4.8 12.9 0.00 0.36 0.20 74 1015.6
20260505220019 15 236 6.4 14.5 0.00 0.36 0.20 74 1015.6
20260505215508 15 252 6.4 14.5 0.00 0.36 0.20 74 1015.6
20260505215002 15 241 3.2 12.9 0.00 0.36 0.20 74 1015.6
20260505214503 15 228 4.8 12.9 0.00 0.36 0.20 74 1015.6
20260505214111 16 258 3.2 12.9 0.00 0.36 0.20 73 1015.6
20260505213503 16 220 1.6 11.3 0.00 0.36 0.20 73 1015.7
20260505213021 16 217 4.8 11.3 0.00 0.36 0.20 73 1015.7
20260505212507 15 155 4.8 11.3 0.00 0.36 0.20 74 1015.8
20260505212004 15 174 3.2 12.9 0.00 0.36 0.20 77 1015.8
20260505211525 15 206 4.8 12.9 0.00 0.36 0.20 76 1015.9
20260505211004 15 223 4.8 11.3 0.00 0.36 0.20 77 1015.8
20260505210502 15 197 6.4 11.3 0.00 0.36 0.20 78 1015.8
20260505210005 15 213 4.8 11.3 0.00 0.36 0.20 78 1015.9
20260505205502 14 266 4.8 11.3 0.00 0.36 0.20 79 1016.0
20260505205010 14 241 4.8 12.9 0.00 0.36 0.20 79 1016.0
20260505204525 14 210 4.8 12.9 0.00 0.36 0.20 79 1016.0
20260505204004 14 241 3.2 11.3 0.00 0.36 0.20 78 1015.9
20260505203608 14 238 3.2 8.0 0.00 0.36 0.20 78 1016.0
20260505203006 14 212 3.2 8.0 0.00 0.36 0.20 78 1016.1
20260505202504 14 246 3.2 8.0 0.00 0.36 0.20 78 1016.0
20260505202002 14 236 1.6 8.0 0.00 0.36 0.20 78 1016.0
20260505201529 14 214 3.2 8.0 0.00 0.36 0.20 78 1016.0
20260505201004 14 219 1.6 8.0 0.00 0.36 0.20 78 1016.0
20260505200504 14 232 3.2 8.0 0.00 0.36 0.20 78 1016.1
20260505200011 14 199 3.2 9.7 0.00 0.36 0.20 78 1016.1
20260505195507 14 191 3.2 9.7 0.00 0.36 0.20 79 1016.1
20260505195009 14 226 4.8 12.9 0.00 0.36 0.20 78 1016.1
20260505194518 14 236 6.4 12.9 0.00 0.36 0.20 78 1016.0
20260505194003 14 176 6.4 12.9 0.00 0.36 0.20 77 1016.1
20260505193503 14 241 6.4 12.9 0.00 0.36 0.20 76 1016.1
20260505193006 15 263 4.8 12.9 0.00 0.36 0.20 76 1016.0
20260505192504 15 189 3.2 9.7 0.00 0.36 0.20 77 1016.0